Location: Street
(51.1247°N, 2.7429°W)
Time: 01:41:00
(UTC+00:00)

deb Explorer IX - Pass Details

Date: 11 December 2020
Orbit: 536 x 1104 km, 38.8° (Epoch: 20 January)

Event Time Altitude Azimuth Distance (km) Brightness Sun altitude
Rises 17:04:59 0° 262° (W) 3,819 ? -9.0°
Reaches altitude 10° 17:10:21 10° 229° (SW) 2,738 ? -9.8°
Maximum altitude 17:11:53 11° 216° (SW) 2,633 ? -10.0°
Drops below altitude 10° 17:13:22 10° 202° (SSW) 2,649 ? -10.2°
Sets 17:18:14 0° 168° (SSE) 3,422 ? -10.9°
